Location: B?jaj?g
(11.7167°N, 92.6667°E)
Time: 12:25:52
(UTC+00:00)

Okean-O - Pass Details

Date: 18 September 2020
Orbit: 639 x 641 km, 98.2° (Epoch: 23 October)

Event Time Altitude Azimuth Distance (km) Brightness Sun altitude
Rises 13:03:28 0° 183° (S) 2,933 6.0 -19.3°
Reaches altitude 10° 13:05:47 10° 191° (SSW) 2,025 5.3 -19.8°
Maximum altitude 13:09:52 37° 259° (W) 987 4.1 -20.8°
Drops below altitude 10° 13:13:58 10° 327° (NNW) 2,026 5.7 -21.8°
Sets 13:16:17 0° 336° (NNW) 2,935 6.5 -22.4°
